Погода в Грязи

Россия / Московская область     55°44′43″N   36°56′28″E
темп.,
°C
ветер,
м/с
пор.,
м/с
влажн.,
%
обл.,
%
осадки,
мм/ч
давл.,
гПа
погр.,
м
19 мая, ср
ср1900:00+19вюв516712 0.0 1004494
03:00+17вюв4127432 0.0 1005412
06:00+17вюв513758 0.0 1004455
09:00+20ююв597428 0.2 1005871
12:00+21ююв6866100 0.4 10051620
15:00+22ююв695595 0.7 10061898
18:00+21юв576664 0.3 10061068
21:00+16юв378494 0.6 1007149
20 мая, чт
чт2000:00+15вюв368924 0.1 1006146
03:00+14в31093100 0.2 1005243
06:00+14ююв61189100 0.3 1004706
09:00+15юв697091 0.3 10051003
12:00+17юв696891 0.2 10041403
15:00+17ююв696673 1.0 10041524
18:00+15ююв58785 1.1 1003984
21:00+11ю4992100 1.2 1003549
21 мая, пт
пт2100:00+11ююз4890100 0.1 1003702
03:00+10ююз3894100 0.2 1003616
06:00+11з51094100 0.1 1005752
09:00+10з5108669 0.1 1009728
12:00+16зсз585274 0.0 10111522
15:00+17з6744100 0.0 10121831
18:00+16зюз3654100 0.0 10141282
21:00+11зюз367554 0.0 1016100
22 мая, сб
сб2200:00+8зюз36843 0.0 1017120
03:00+7з23860 0.0 101852
06:00+9зюз12795 0.0 101987
09:00+15юз12500 0.0 1019757
12:00+18ю23382 0.0 10191609
15:00+20ююз35368 0.0 10172049
18:00+19юз34492 0.0 10161098
21:00+13ююв22723 0.0 101627
23 мая, вс
вс2300:00+10ю359469 0.0 101785
03:00+9юв229490 0.0 101634
06:00+11вюв278744 0.0 1015238
09:00+16вюв4766100 0.0 1013700
12:00+19вюв5759100 0.0 10101007
15:00+16юв51093100 1.7 1007754
18:00+16юв41197100 1.4 1003692
21:00+16ююз31096100 3.6 1002466